[[{"header":{"parameterUnit":"m.s-1","parameterCategory":1,"la1":30.2991,"la2":30.254,"lo1":-89.0895,"lo2":-89.0444,"dy":0.0017,"dx":0.0017,"nx":28,"ny":28,"refTime":"2024-05-31T03:00:00:Z","depth":0,"parameterNumber":2,"parameterNumberName":"U-component_of_WINDS"},"data":[0,0,0,0,0,0,0,0,0,0,0,0,0,0,0,0,0,0,0,0,0,0,0,0,0,0,0,0,0,0,0,0,0,0,0,0,0,0,0,0,0,0,0,0,0,0,0,0,0,0,0,0,0,0,0,0,0,0,-6.3295,-6.3298,0,-6.3552,-6.3555,-6.3558,-6.3562,-6.3559,-6.3556,-6.3553,-6.3813,-6.3822,-6.3832,0,0,0,0,0,0,0,0,0,0,0,0,0,-6.2803,-6.2812,-6.3295,-6.3298,-6.3301,-6.3552,-6.3555,-6.3559,-6.3563,-6.3559,-6.3555,-6.3552,-6.3809,-6.3821,-6.3833,0,0,0,0,0,0,0,0,0,0,0,0,0,-6.3034,-6.2815,-6.3294,-6.3334,-6.334,-6.3551,-6.3556,-6.356,-6.3564,-6.3559,-6.3554,-6.355,-6.3806,-6.382,-6.3835,-6.4023,0,0,-6.388,-6.3887,0,0,0,0,0,0,0,0,-6.3021,-6.3052,-6.3325,-6.3331,-6.3339,-6.352,-6.3477,-6.3715,-6.3565,-6.3479,-6.3553,-6.3547,-6.3719,-6.3741,-6.38,-6.4035,-6.4046,-6.3881,-6.389,-6.3897,-6.3901,0,0,0,0,0,0,0,-6.3005,-6.3041,-6.3397,-6.3329,-6.3337,-6.3337,-6.3365,-6.3522,-6.3623,-6.3486,-6.3487,-6.3517,-6.3722,-6.3785,-6.3806,-6.405,-6.3881,-6.3894,-6.3903,-6.3909,-6.4451,-6.4457,0,0,0,0,0,0,-6.2982,-6.3028,-6.3388,-6.3404,-6.3165,-6.335,-6.3381,-6.3467,-6.3621,-6.364,-6.3521,-6.3517,-6.3762,-6.3788,-6.3815,-6.4044,-6.3897,-6.3911,-6.3919,-6.4446,-6.4452,-6.4458,0,0,0,0,0,0,-6.2971,-6.3014,-6.3378,-6.3217,-6.3263,-6.3364,-6.346,-6.3474,-6.3538,-6.3648,-6.3665,-6.3568,-6.3759,-6.3794,-6.3971,-6.4053,-6.3917,-6.3931,-6.4439,-6.4448,-6.4455,-6.4504,0,0,0,0,0,0,-6.2957,-6.301,-6.3083,-6.3218,-6.3272,-6.3531,-6.3465,-6.3483,-6.3564,-6.356,-6.3696,-6.3714,-6.3758,-6.3949,-6.3986,-6.4071,-6.3942,-6.4432,-6.4443,-6.4453,-6.4495,-6.4513,-6.4527,0,0,0,0,0,-6.2939,-6.3086,-6.3087,-6.3131,-6.3366,-6.3536,-6.3566,-6.3616,-6.357,-6.3644,-6.3715,-6.3709,-6.4039,-6.3967,-6.4009,-6.4099,-6.4427,-6.444,-6.4452,-6.4488,-6.4509,-6.4527,0,0,0,0,0,0,-6.2957,-6.3105,-6.3107,-6.3302,-6.3407,-6.3536,-6.3631,-6.3637,-6.3755,-6.3747,-6.3802,-6.3832,-6.4008,-6.4072,-6.399,-6.4289,-6.4227,-6.4249,-6.424,-6.4261,-6.4277,-6.4257,-6.3955,0,0,0,0,0,-6.2984,-6.3111,-6.3233,-6.3393,-6.3446,-6.353,-6.3606,-6.3635,-6.3745,-6.3788,-6.3872,-6.3978,-6.4105,-6.4187,-6.431,-6.4505,-6.4534,-6.4588,-6.4604,-6.4617,-6.4634,-6.474,-6.4765,-6.4499,-6.4499,-6.4499,0,0,-6.304,-6.3137,-6.3213,-6.3399,-6.3484,-6.3612,-6.3567,-6.3705,-6.3801,-6.3809,-6.3981,-6.4046,-6.4168,-6.4354,-6.4441,-6.4413,-6.4714,-6.4633,-6.4642,-6.4652,-6.4755,-6.478,-6.4802,-6.4507,-6.4506,-6.4504,0,0,-6.3208,-6.3295,-6.3437,-6.3523,-6.3652,-6.3707,-6.3741,-6.387,-6.3914,-6.4088,-6.4096,-6.4211,-6.4429,-6.4515,-6.4587,-6.4788,-6.4786,-6.4827,-6.4909,-6.5012,-6.5033,-6.5051,-6.5121,-6.5145,-6.4843,-6.4844,-6.4844,0,-6.3261,-6.3457,-6.3509,-6.3649,-6.3729,-6.3744,-6.3887,-6.3968,-6.413,-6.4184,-6.4151,-6.4425,-6.4508,-6.4714,-6.4763,-6.4822,-6.4861,-6.481,-6.5026,-6.5045,-6.5063,-6.513,-6.5156,-6.4847,-6.4847,-6.4847,-6.4846,0,-6.3515,-6.365,-6.375,-6.3907,-6.3999,-6.414,-6.4212,-6.4299,-6.432,-6.4378,-6.4554,-6.4655,-6.4797,-6.4849,-6.4871,-6.5058,-6.5036,-6.5015,-6.4953,-6.5092,-6.5155,-6.5181,-6.4853,-6.4852,-6.485,-6.4849,0,0,-6.3699,-6.3884,-6.3919,-6.399,-6.4133,-6.4238,-6.4379,-6.452,-6.4593,-6.4704,-6.4822,-6.5007,-6.4987,-6.5069,-6.5101,-6.5191,-6.5341,-6.5158,-6.5162,-6.5186,-6.555,-6.5564,-6.5592,-6.5342,-6.5347,-6.5352,-6.5539,0,-6.388,-6.4131,-6.4183,-6.44,-6.4525,-6.4541,-6.4664,-6.4764,-6.4822,-6.4935,-6.4999,-6.5128,-6.5094,-6.5143,-6.5234,-6.5304,-6.5414,-6.5291,-6.545,-6.5455,-6.5416,-6.5626,-6.5641,-6.5813,-6.5564,-6.5569,-6.5572,0,-6.4125,-6.4243,-6.4472,-6.4599,-6.4653,-6.4762,-6.4895,-6.5004,-6.5118,-6.5153,-6.5245,-6.5267,-6.5413,-6.5347,-6.5546,-6.5461,-6.5529,-6.5574,-6.5581,-6.5596,-6.5519,-6.5643,-6.587,-6.5894,-6.5612,-6.5609,-6.5606,0,-6.4232,-6.4449,-6.4614,-6.4675,-6.4827,-6.4903,-6.4969,-6.5079,-6.516,-6.5276,-6.5329,-6.546,-6.5531,-6.5631,-6.5687,-6.5635,-6.5882,-6.5821,-6.5913,-6.5912,-6.5962,-6.5957,-6.6199,-6.6011,-6.6011,-6.601,-6.601,0,-6.4428,-6.4567,-6.4665,-6.4766,-6.4922,-6.4979,-6.5132,-6.5197,-6.5295,-6.5408,-6.543,-6.5536,-6.5605,-6.572,-6.5765,-6.5921,-6.5954,-6.5985,-6.5995,-6.5982,-6.5977,-6.6025,-6.6013,-6.6017,-6.6015,-6.6014,-6.6013,0,-6.4573,-6.4645,-6.4825,-6.4955,-6.4991,-6.51,-6.521,-6.5308,-6.5367,-6.5509,-6.5546,-6.5638,-6.5774,-6.5841,-6.601,-6.604,-6.6216,-6.622,-6.6178,-6.6181,-6.6268,-6.6258,-6.6547,-6.6587,-6.6374,-6.6376,-6.6378,0,-6.4691,-6.4799,-6.494,-6.5018,-6.5087,-6.5212,-6.5296,-6.5357,-6.5442,-6.558,-6.566,-6.5798,-6.5911,-6.6127,-6.6208,-6.6337,-6.6342,-6.6435,-6.6361,-6.6344,-6.634,-6.6331,-6.6341,-6.6446,-6.6448,-6.645,-6.6451,0,-6.4893,-6.4923,-6.5043,-6.5176,-6.5275,-6.5381,-6.5486,-6.5549,-6.5626,-6.5721,-6.5861,-6.5949,-6.6122,-6.6257,-6.6392,-6.6458,-6.6467,-6.6474,-6.6502,-6.6488,-6.6458,-6.6472,-6.621,-6.6467,-6.6465,-6.6464,-6.6463,-6.6463,-6.5027,-6.5123,-6.5237,-6.5369,-6.5455,-6.5553,-6.5651,-6.5723,-6.5841,-6.5987,-6.6016,-6.6164,-6.6274,-6.6456,-6.6527,-6.6642,-6.6622,-6.6662,-6.6672,-6.668,-6.6683,-6.6442,-6.6668,-6.6667,-6.6667,-6.6667,-6.6666,0,-6.5228,-6.5302,-6.5424,-6.557,-6.5674,-6.5676,-6.5792,-6.5878,-6.6008,-6.6111,-6.6222,-6.6382,-6.6514,-6.6605,-6.6738,-6.6812,-6.682,-6.6845,-6.6838,-6.6853,-6.6696,-6.6657,-6.6837,-6.6837,-6.6837,-6.6837,-6.6837,-6.6837,-6.5344,-6.5505,-6.5549,-6.5752,-6.5826,-6.5972,-6.6038,-6.6127,-6.6209,-6.6387,-6.6497,-6.6557,-6.6654,-6.6795,-6.6915,-6.6938,-6.6984,-6.701,-6.7032,-6.6883,-6.6865,-6.6847,-6.6811,-6.702,-6.702,-6.718,-6.7181,-6.7182]},{"header":{"parameterUnit":"m.s-1","parameterCategory":1,"la1":30.2991,"la2":30.254,"lo1":-89.0895,"lo2":-89.0444,"dy":0.0017,"dx":0.0017,"nx":28,"ny":28,"refTime":"2024-05-31T03:00:00:Z","depth":0,"parameterNumber":3,"parameterNumberName":"V-component_of_WINDS"},"data":[0,0,0,0,0,0,0,0,0,0,0,0,0,0,0,0,0,0,0,0,0,0,0,0,0,0,0,0,0,0,0,0,0,0,0,0,0,0,0,0,0,0,0,0,0,0,0,0,0,0,0,0,0,0,0,0,0,0,4.9133,4.9135,0,4.928,4.9281,4.9283,4.9276,4.9274,4.9272,4.927,4.9411,4.9417,4.9422,0,0,0,0,0,0,0,0,0,0,0,0,0,4.8839,4.8845,4.9133,4.9135,4.9137,4.9279,4.9281,4.9283,4.9277,4.9274,4.9272,4.9269,4.9409,4.9416,4.9423,0,0,0,0,0,0,0,0,0,0,0,0,0,4.8974,4.8846,4.9133,4.9151,4.9154,4.9279,4.9282,4.9284,4.9277,4.9274,4.9271,4.9268,4.9407,4.9415,4.9424,4.9538,0,0,4.945,4.9454,0,0,0,0,0,0,0,0,4.8966,4.8985,4.9146,4.915,4.9154,4.9257,4.923,4.9369,4.9278,4.923,4.927,4.9266,4.9362,4.9374,4.9408,4.9545,4.9551,4.9451,4.9456,4.9459,4.9462,0,0,0,0,0,0,0,4.8957,4.8978,4.9191,4.9149,4.9153,4.9149,4.9165,4.9256,4.9311,4.9234,4.9234,4.9252,4.9363,4.94,4.9411,4.9553,4.945,4.9458,4.9463,4.9467,4.9789,4.9792,0,0,0,0,0,0,4.8945,4.8971,4.9186,4.9195,4.9051,4.9157,4.9174,4.9227,4.931,4.932,4.9254,4.9251,4.9387,4.9401,4.9416,4.9555,4.9459,4.9467,4.9472,4.9786,4.979,4.9794,0,0,0,0,0,0,4.8939,4.8964,4.918,4.9083,4.911,4.9165,4.9224,4.9231,4.9268,4.9326,4.9334,4.9282,4.9385,4.9404,4.9508,4.9559,4.9471,4.9479,4.9782,4.9787,4.9792,4.9833,0,0,0,0,0,0,4.893,4.8962,4.9008,4.9084,4.9116,4.9273,4.9227,4.9236,4.9283,4.928,4.9354,4.9363,4.9384,4.9495,4.9517,4.957,4.9486,4.9777,4.9784,4.979,4.9827,4.9839,4.9849,0,0,0,0,0,4.892,4.9012,4.9011,4.9037,4.9175,4.9276,4.9293,4.9318,4.9288,4.9333,4.937,4.9361,4.9551,4.9506,4.953,4.9586,4.9774,4.9782,4.979,4.9823,4.9837,4.9849,0,0,0,0,0,0,4.8938,4.9023,4.9022,4.9142,4.9202,4.9275,4.9333,4.9332,4.94,4.9394,4.9419,4.9435,4.9539,4.9573,4.9522,4.97,4.9658,4.9671,4.9675,4.9689,4.97,4.9689,4.9493,0,0,0,0,0,4.8956,4.9034,4.9103,4.9202,4.9233,4.9278,4.9323,4.9336,4.9398,4.9423,4.9467,4.9526,4.9598,4.9645,4.9715,4.9832,4.9847,4.9882,4.9893,4.9902,4.9912,4.9975,4.9992,4.9819,4.9819,4.9819,0,0,4.8994,4.905,4.9097,4.9207,4.9256,4.9333,4.9299,4.9382,4.9439,4.9434,4.9537,4.9571,4.9637,4.9748,4.9799,4.9779,4.9963,4.9912,4.9918,4.9924,4.9985,5.0001,5.0016,4.9825,4.9824,4.9823,0,0,4.9103,4.9154,4.9243,4.9292,4.9367,4.9396,4.9417,4.949,4.9514,4.9617,4.9615,4.9681,4.9806,4.9853,4.9893,5.002,5.0013,5.0042,5.0098,5.0159,5.0173,5.0185,5.0229,5.0245,5.0052,5.0052,5.0052,0,4.914,4.926,4.9287,4.9372,4.942,4.9422,4.951,4.9555,4.9647,4.9679,4.9656,4.9813,4.9858,4.9979,5.001,5.0043,5.0066,5.0033,5.0169,5.0182,5.0193,5.0236,5.0252,5.0055,5.0055,5.0054,5.0054,0,4.9301,4.9384,4.9446,4.9538,4.9593,4.9678,4.9716,4.9767,4.9776,4.9806,4.991,4.9964,5.0045,5.0075,5.0083,5.0197,5.0183,5.0164,5.0122,5.0212,5.0252,5.0269,5.0059,5.0058,5.0057,5.0057,0,0,4.9426,4.9533,4.9555,4.9597,4.9679,4.9742,4.9826,4.9908,4.9951,5.0014,5.0084,5.019,5.0174,5.0219,5.0232,5.0286,5.0382,5.0261,5.0263,5.0281,5.0509,5.0522,5.0541,5.0378,5.0382,5.0384,5.0504,0,4.9543,4.9697,4.9724,4.9857,4.9933,4.9935,5.0009,5.0065,5.0096,5.0162,5.0194,5.0269,5.0243,5.027,5.0324,5.0359,5.0428,5.0351,5.0441,5.0444,5.0425,5.0562,5.0576,5.0687,5.052,5.0522,5.0524,0,4.97,4.9771,4.9912,4.9984,5.0017,5.0083,5.0159,5.0224,5.0287,5.0305,5.0356,5.0364,5.0448,5.0403,5.0519,5.0466,5.0505,5.0527,5.0532,5.0541,5.0489,5.0574,5.0723,5.0739,5.0549,5.0547,5.0546,0,4.9776,4.9906,5.0007,5.0043,5.0129,5.0175,5.0212,5.0273,5.032,5.0386,5.0417,5.049,5.053,5.0586,5.0612,5.0577,5.0726,5.0683,5.0741,5.0741,5.0772,5.077,5.0929,5.0798,5.0798,5.0798,5.0797,0,4.9904,4.999,5.0043,5.0105,5.0201,5.0229,5.0322,5.0358,5.0412,5.0479,5.0485,5.0547,5.0578,5.0644,5.0664,5.0757,5.0774,5.079,5.0794,5.0789,5.0787,5.0814,5.0807,5.0802,5.0801,5.08,5.0799,0,5.0005,5.0044,5.0155,5.0228,5.0248,5.0315,5.0376,5.0435,5.0466,5.0551,5.0572,5.0619,5.0697,5.0728,5.0823,5.0836,5.0943,5.0941,5.0922,5.0923,5.098,5.0974,5.1161,5.1187,5.104,5.1041,5.1042,0,5.0084,5.0151,5.0232,5.0279,5.0318,5.0393,5.0442,5.0472,5.0522,5.0599,5.0648,5.0727,5.0792,5.0915,5.0956,5.1028,5.1028,5.1088,5.1038,5.1031,5.1028,5.1023,5.1029,5.1097,5.1099,5.11,5.1101,0,5.0219,5.0235,5.0307,5.0386,5.0445,5.0508,5.0568,5.0605,5.0644,5.0699,5.0781,5.0831,5.0929,5.1006,5.1081,5.1116,5.1114,5.1116,5.1134,5.1129,5.1116,5.1123,5.0947,5.1112,5.1111,5.111,5.1109,5.1109,5.0311,5.0371,5.0437,5.0517,5.0566,5.0623,5.0682,5.0721,5.079,5.0874,5.0886,5.0973,5.1033,5.1133,5.1171,5.1238,5.1222,5.1247,5.1253,5.1259,5.1262,5.1106,5.1251,5.1251,5.1251,5.125,5.125,0,5.0447,5.049,5.0563,5.0649,5.0711,5.0707,5.0774,5.0825,5.0903,5.096,5.1024,5.1117,5.1191,5.1238,5.1313,5.1357,5.1358,5.1375,5.1372,5.138,5.1273,5.125,5.1373,5.1373,5.1373,5.1373,5.1373,5.1373,5.0525,5.0625,5.0649,5.0772,5.0814,5.0902,5.094,5.0991,5.1037,5.1142,5.1205,5.1236,5.1288,5.1367,5.1434,5.1446,5.1472,5.1491,5.1501,5.14,5.1387,5.1375,5.1354,5.1497,5.1497,5.1603,5.1604,5.1604]}]]